Location: Kra?nica
(53.4833°N, 14.6167°E)
Time: 21:57:38
(UTC+00:00)

Cosmos 2322 Rocket - Pass Details

Date: 23 May 2024
Orbit: 832 x 850 km, 71.0° (Epoch: 22 June)

Event Time Altitude Azimuth Distance (km) Brightness Sun altitude
Rises 00:50:31 0° 327° (NNW) 3,401 5.8 -12.0°
Reaches altitude 10° 00:52:57 10° 327° (NNW) 2,465 5.0 -11.8°
Maximum altitude 00:58:38 84° 240° (WSW) 853 2.2 -11.5°
Drops below altitude 10° 01:04:18 10° 153° (SSE) 2,463 4.3 -11.0°
Sets 01:06:44 0° 153° (SSE) 3,396 5.0 -10.9°
